Content
SEND FEEDBACK

Daily
Averages
Monthly
Summary
United States of America

LAKE LURE, NORTH CAROLINA


Home > North America > United States > North Carolina
Elevation: 105 feet     Latitude: 35 25N     Longitude: 082 14W

WEATHER
 
SELECT A DAY
Number of Records: 229,658;   Date Range: 1/1/95 - 10/30/14
 
SHARE

PRINT THIS DATA

[ ← Previous Day ]
WEATHER ALMANAC - JANUARY 31, 2013
[ Next Day → ]
[ °C ]   °F
Weather ElementAverageHighLow
Temperature36.8 °F44.1 °F (12:54 am)30 °F (7:54 am)
Dewpoint21.2 °F36 °F (12:54 am)15.1 °F (3:54 pm)
Humidity55.2 %76 % (2:54 am)35 % (3:54 pm)
Barometer29.87 in30.02 in (8:54 pm)29.55 in (12:54 am)
Wind Speed9.9 mph21.9 mph (2:54 pm)
Wind Gust39.1 mph (2:54 pm)
Weather ElementAverage
Visibility10 mi
Wind DirectionWSW (256.3 °)

Weather ElementTotal
Precipitation---
Heating Degree Days28 (Base 65)
Averaged from 24 records on January 31, 2013
WEATHER CONDITIONS BREAKOUT
WIND DIRECTION BREAKOUT
WEATHER BY HOUR - JANUARY 31, 2013
[ °C ]   °F
Local TimeTemperatureDewpointHumidityBarometerVisibilityWind DirectionWind SpeedGust SpeedPrecipitationEventsConditions
12:54 AM44.1 °F36.0 °F73 %29.55 in10.0 miNW (310°)10.4 mph17.3 mph0.00 inMostly Cloudy
1:54 AM41.0 °F33.1 °F73 %29.59 in10.0 miNW (310°)11.5 mph0.00 inScattered Clouds
2:54 AM37.9 °F30.9 °F76 %29.65 in10.0 miWNW (300°)15.0 mph23.0 mph0.00 inRainLight Rain
3:54 AM35.1 °F28.0 °F76 %29.69 in10.0 miNorth (350°)9.2 mph0.00 inMostly Cloudy
4:54 AM34.0 °F25.0 °F70 %29.73 in10.0 miNNW (330°)13.8 mph19.6 mphOvercast
5:54 AM32.0 °F23.0 °F69 %29.78 in10.0 miNNW (340°)8.1 mphScattered Clouds
6:54 AM30.9 °F19.9 °F64 %29.81 in10.0 miNNW (330°)11.5 mph19.6 mphScattered Clouds
7:54 AM30.0 °F19.0 °F64 %29.86 in10.0 miNW (320°)6.9 mphPartly Cloudy
8:54 AM33.1 °F19.9 °F59 %29.88 in10.0 miNW (320°)9.2 mphClear
9:54 AM35.1 °F19.0 °F52 %29.90 in10.0 miNNW (330°)10.4 mph23.0 mphClear
10:54 AM37.0 °F19.9 °F50 %29.91 in10.0 miNW (310°)13.8 mph18.4 mphClear
11:54 AM39.0 °F17.1 °F41 %29.91 in10.0 miWNW (290°)12.7 mph20.7 mphClear
12:54 PM41.0 °F19.0 °F41 %29.91 in10.0 miNNW (340°)11.5 mph23.0 mphClear
1:54 PM42.1 °F17.1 °F37 %29.91 in10.0 miWNW (300°)13.8 mph25.3 mphPartly Cloudy
2:01 PM42.8 °F17.6 °F36 %29.91 in10.0 miNW (320°)16.1 mph24.2 mphPartly Cloudy
2:54 PM41.0 °F16.0 °F36 %29.94 in10.0 miNW (320°)21.9 mph39.1 mphPartly Cloudy
3:54 PM41.0 °F15.1 °F35 %29.97 in10.0 miNW (310°)11.5 mph23.0 mphClear
4:54 PM39.9 °F16.0 °F38 %29.97 in10.0 miNorth (350°)10.4 mphClear
5:54 PM37.9 °F17.1 °F43 %29.98 in10.0 miNorth (10°)5.8 mphClear
6:54 PM36.0 °F18.0 °F48 %30.00 in10.0 miNorth (360°)5.8 mphClear
7:54 PM33.1 °F21.0 °F61 %30.01 in10.0 miCalmClear
8:54 PM30.9 °F19.9 °F64 %30.02 in10.0 miCalmClear
10:54 PM33.8 °F21.2 °F60 %29.97 in10.0 miVariable4.6 mphClear
11:54 PM34.0 °F21.0 °F59 %29.98 in10.0 miVariable3.5 mphClear
Hourly data recorded from KAVL, located miles away from Lake Lure, North Carolina







STORIES FROM OUR PARTNERS